Resolute CS, Nunavut

7:41 AM MDT on July 21, 2017 (GMT -0600)
Resolute CS

Weather History for CXRB - September, 2013

Change the Weather History Date:

Saturday, September 7, 2013

  Actual Average (CYRB) Record (CYRB)
Temperature  
Mean Temperature 24 °F -  
Max Temperature 27 °F 29 °F 39 °F (2006)
Min Temperature 20 °F 23 °F 21 °F (1997)
Degree Days  
Heating Degree Days 42    
Moisture  
Dew Point 21 °F    
Average Humidity 90    
Maximum Humidity 96    
Minimum Humidity 83    
Precipitation  
Precipitation 0.00 in - - ()
Sea Level Pressure  
Sea Level Pressure 29.66 in    
Wind  
Wind Speed 14 mph ()    
Max Wind Speed 21 mph    
Max Gust Speed 23 mph    
Averages and records for this station are not official NWS values.
T = Trace of Precipitation, MM = Missing Value Source: Averaged Metar Reports

Daily Weather History Graph

Daily Weather History Graph

Search for Another Location

Airport or City:

Trip Planner

Search our weather history database for the weather conditions in past years. The results will help you decide how hot, cold, wet, or windy it might be!

Date:

Astronomy

Sep. 07, 2013 Rise Set
Actual Time 4:34 AM MDT 7:56 PM MDT
Civil Twilight 2:52 AM MDT 9:35 PM MDT
Nautical Twilight Sun does not set Sun does not set
Astronomical Twilight Sun does not set Sun does not set
Moon 9:31 AM MDT (9/7) 5:59 PM MDT (9/7)
Length of Visible Light 18h 42m
Length of Day
15h 22m
Waxing Crescent, 5% of the Moon is Illuminated
Sep 7
Waxing Crescent
Sep 12
First Quarter
Sep 19
Full
Sep 26
Last Quarter
Oct 4
New

Hourly Weather History & Observations

Time (MDT) Temp. Windchill Dew Point Humidity Pressure Visibility Wind Dir Wind Speed Gust Speed Precip Events Conditions
12:00 AM 23 °F - 20 °F 85% 29.66 in - NW 20.7 mph - -  
12:00 AM 22.6 °F 7.5 °F 20.3 °F 91% 29.66 in - NW 20.7 mph - N/A   Unknown
1:00 AM 23.0 °F 8.7 °F 20.8 °F 91% 29.66 in - NW 18.4 mph - N/A   Unknown
2:00 AM 22.8 °F 9.4 °F 21.4 °F 94% 29.65 in - NW 16.1 mph - N/A   Unknown
3:00 AM 22.5 °F 8.9 °F 20.5 °F 92% 29.65 in - NNW 16.1 mph - N/A   Unknown
4:00 AM 21.9 °F 10.4 °F 19.4 °F 90% 29.65 in - North 11.5 mph - N/A   Unknown
5:00 AM 21.7 °F 9.0 °F 19.6 °F 91% 29.64 in - NNW 13.8 mph - N/A   Unknown
6:00 AM 22 °F - 20 °F 88% 29.64 in - NNW 12.7 mph - -  
6:00 AM 22.3 °F 10.2 °F 19.9 °F 91% 29.64 in - NNW 12.7 mph - N/A   Unknown
7:00 AM 22.6 °F 8.7 °F 19.9 °F 89% 29.63 in - NNW 17.3 mph - N/A   Unknown
8:00 AM 22.8 °F 9.4 °F 20.3 °F 90% 29.63 in - NW 16.1 mph - N/A   Unknown
9:00 AM 22.8 °F 10.4 °F 19.6 °F 87% 29.63 in - NNW 13.8 mph - N/A   Unknown
10:00 AM 23.0 °F 10.6 °F 19.6 °F 87% 29.64 in - NNW 13.8 mph 19.6 mph N/A   Unknown
11:00 AM 22.6 °F 10.1 °F 18.9 °F 85% 29.64 in - NNW 13.8 mph - N/A   Unknown
12:00 PM 22.5 °F 8.9 °F 18.3 °F 84% 29.65 in - NNW 16.1 mph 23.0 mph N/A   Unknown
1:00 PM 22.8 °F 10.9 °F 18.3 °F 83% 29.67 in - NNW 12.7 mph 18.4 mph N/A   Unknown
2:00 PM 22.1 °F 10.6 °F 17.8 °F 83% 29.68 in - NW 11.5 mph - N/A   Unknown
3:00 PM 20.8 °F 8.4 °F 17.1 °F 85% 29.68 in - NNW 12.7 mph - N/A   Unknown
4:00 PM 21.9 °F 9.2 °F 19.2 °F 89% 29.69 in - NNW 13.8 mph - N/A   Unknown
5:00 PM 22.8 °F 11.5 °F 21.4 °F 94% 29.69 in - NW 11.5 mph - N/A   Unknown
6:00 PM 25 °F - 24 °F 93% 29.68 in - NNW 9.2 mph - -  
6:00 PM 24.6 °F 15.1 °F 23.7 °F 96% 29.68 in - NNW 9.2 mph - N/A   Unknown
7:00 PM 27.3 °F 17.1 °F 26.4 °F 96% 29.68 in - NNW 11.5 mph - N/A   Unknown
8:00 PM 27.5 °F 17.4 °F 26.6 °F 96% 29.67 in - NNW 11.5 mph - N/A   Unknown
9:00 PM 27.1 °F 16.4 °F 25.7 °F 94% 29.68 in - NNW 12.7 mph - N/A   Unknown
10:00 PM 27.1 °F 16.4 °F 25.5 °F 94% 29.69 in - NNW 12.7 mph - N/A   Unknown
11:00 PM 27.1 °F 16.9 °F 25.7 °F 94% 29.70 in - NNW 11.5 mph - N/A   Unknown